Olive Branch, MS

2:17 AM CDT on April 23, 2017 (GMT -0500)
Olive Branch

Weather History for KOLV - October, 2013

Change the Weather History Date:

Monday, October 21, 2013

  Actual Average (KMEM) Record (KMEM)
Temperature  
Mean Temperature 56 °F -  
Max Temperature 71 °F 72 °F 89 °F (1947)
Min Temperature 42 °F 50 °F 32 °F (1952)
Degree Days  
Heating Degree Days 8    
Growing Degree Days 6 (Base 50)    
Moisture  
Dew Point 47 °F    
Average Humidity 87    
Maximum Humidity 100    
Minimum Humidity 41    
Precipitation  
Precipitation 0.00 in - - ()
Sea Level Pressure  
Sea Level Pressure 30.04 in    
Wind  
Wind Speed 2 mph (WSW)    
Max Wind Speed 13 mph    
Max Gust Speed 16 mph    
Visibility 10 miles    
Events      
Averages and records for this station are not official NWS values.
T = Trace of Precipitation, MM = Missing Value Source: NWS Daily Summary

Daily Weather History Graph

Daily Weather History Graph

Search for Another Location

Airport or City:

Trip Planner

Search our weather history database for the weather conditions in past years. The results will help you decide how hot, cold, wet, or windy it might be!

Date:

Astronomy

Oct. 21, 2013 Rise Set
Actual Time 7:10 AM CDT 6:16 PM CDT
Civil Twilight 6:44 AM CDT 6:42 PM CDT
Nautical Twilight 6:15 AM CDT 7:11 PM CDT
Astronomical Twilight 5:45 AM CDT 7:41 PM CDT
Moon 8:14 PM CDT (10/21) 9:40 AM CDT (10/21)
Length of Visible Light 11h 57m
Length of Day
11h 06m
Waning Gibbous, 92% of the Moon is Illuminated
Oct 21
Waning Gibbous
Oct 26
Last Quarter
Nov 3
New
Nov 9
First Quarter
Nov 17
Full

Hourly Weather History & Observations

Time (CDT) Temp. Windchill Dew Point Humidity Pressure Visibility Wind Dir Wind Speed Gust Speed Precip Events Conditions
12:15 AM 44.6 °F - 44.6 °F 100% 30.03 in 10.0 mi Calm Calm - 0.00 in   Overcast
12:35 AM 44.6 °F - 44.6 °F 100% 30.03 in 10.0 mi Calm Calm - 0.00 in   Overcast
12:55 AM 44.6 °F - 44.6 °F 100% 30.03 in 10.0 mi Calm Calm - 0.00 in   Overcast
1:15 AM 44.6 °F - 44.6 °F 100% 30.03 in 10.0 mi Calm Calm - 0.00 in   Overcast
1:35 AM 44.6 °F - 44.6 °F 100% 30.03 in 10.0 mi Calm Calm - 0.00 in   Overcast
1:55 AM 44.6 °F - 44.6 °F 100% 30.04 in 10.0 mi Calm Calm - 0.00 in   Overcast
2:15 AM 42.8 °F - 42.8 °F 100% 30.04 in 10.0 mi Calm Calm - 0.00 in   Overcast
2:35 AM 42.8 °F - 42.8 °F 100% 30.04 in 10.0 mi Calm Calm - 0.00 in   Overcast
2:55 AM 42.8 °F - 42.8 °F 100% 30.05 in 10.0 mi Calm Calm - 0.00 in   Overcast
3:15 AM 44.6 °F - 44.6 °F 100% 30.05 in 10.0 mi Calm Calm - 0.00 in   Overcast
3:35 AM 42.8 °F - 42.8 °F 100% 30.04 in 9.0 mi Calm Calm - 0.00 in   Overcast
3:55 AM 44.6 °F - 44.6 °F 100% 30.05 in 10.0 mi Calm Calm - 0.00 in   Overcast
4:15 AM 42.8 °F 41.1 °F 42.8 °F 100% 30.04 in 10.0 mi SSE 3.5 mph - 0.00 in   Overcast
4:35 AM 42.8 °F - 42.8 °F 100% 30.04 in 9.0 mi Calm Calm - 0.00 in   Overcast
4:55 AM 42.8 °F 40.1 °F 42.8 °F 100% 30.04 in 10.0 mi SSE 4.6 mph - 0.00 in   Partly Cloudy
5:15 AM 42.8 °F - 42.8 °F 100% 30.04 in 9.0 mi Calm Calm - 0.00 in   Mostly Cloudy
5:35 AM 44.6 °F - 44.6 °F 100% 30.05 in 9.0 mi Calm Calm - 0.00 in   Overcast
5:55 AM 42.8 °F - 42.8 °F 100% 30.05 in 10.0 mi Calm Calm - 0.00 in   Overcast
6:15 AM 44.6 °F - 44.6 °F 100% 30.05 in 9.0 mi Calm Calm - 0.00 in   Overcast
6:35 AM 42.8 °F - 42.8 °F 100% 30.05 in 10.0 mi Calm Calm - 0.00 in   Overcast
6:50 AM 42.8 °F - 42.8 °F 100% 30.05 in 10.0 mi Calm Calm - N/A   Scattered Clouds
7:50 AM 42.8 °F 40.1 °F 42.8 °F 100% 30.07 in 10.0 mi South 4.6 mph - N/A   Scattered Clouds
8:50 AM 50.0 °F - 50.0 °F 100% 30.09 in 10.0 mi South 6.9 mph - N/A   Partly Cloudy
9:50 AM 57.2 °F - 48.2 °F 72% 30.09 in 10.0 mi SW 8.1 mph - N/A   Partly Cloudy
10:50 AM 62.6 °F - 48.2 °F 59% 30.08 in 10.0 mi SW 9.2 mph - N/A   Partly Cloudy
11:50 AM 66.2 °F - 46.4 °F 49% 30.06 in 10.0 mi WSW 5.8 mph - N/A   Partly Cloudy
12:50 PM 68.0 °F - 46.4 °F 46% 30.05 in 10.0 mi SW 11.5 mph - N/A   Scattered Clouds
1:50 PM 69.8 °F - 48.2 °F 46% 30.01 in 10.0 mi SW 4.6 mph - N/A   Scattered Clouds
2:50 PM 71.6 °F - 48.2 °F 43% 30.00 in 10.0 mi SW 5.8 mph - N/A   Scattered Clouds
3:50 PM 71.6 °F - 46.4 °F 41% 29.99 in 10.0 mi SSW 6.9 mph - N/A   Scattered Clouds
4:50 PM 68.0 °F - 46.4 °F 46% 30.00 in 10.0 mi SW 8.1 mph - N/A   Mostly Cloudy
5:50 PM 64.4 °F - 48.2 °F 56% 29.99 in 10.0 mi Calm Calm - N/A   Mostly Cloudy
6:55 PM 62.6 °F - 50.0 °F 63% 30.00 in 10.0 mi Calm Calm - N/A   Mostly Cloudy
7:50 PM 60.8 °F - 51.8 °F 72% 30.00 in 10.0 mi Calm Calm - N/A   Mostly Cloudy
8:55 PM 57.2 °F - 55.4 °F 94% 30.02 in 10.0 mi Calm Calm - 0.00 in   Overcast
9:15 PM 59.0 °F - 55.4 °F 88% 30.03 in 10.0 mi NNW 12.7 mph 16.1 mph 0.00 in   Mostly Cloudy
9:35 PM 57.2 °F - 55.4 °F 94% 30.04 in 10.0 mi NNW 12.7 mph - 0.00 in   Mostly Cloudy
9:55 PM 57.2 °F - 53.6 °F 88% 30.04 in 9.0 mi North 8.1 mph - 0.00 in   Scattered Clouds
10:15 PM 57.2 °F - 53.6 °F 88% 30.05 in 10.0 mi North 8.1 mph - 0.00 in   Partly Cloudy
10:35 PM 57.2 °F - 53.6 °F 88% 30.05 in 10.0 mi North 9.2 mph - 0.00 in   Mostly Cloudy
10:55 PM 55.4 °F - 53.6 °F 94% 30.05 in 10.0 mi NNE 3.5 mph - 0.00 in   Overcast
11:15 PM 55.4 °F - 55.4 °F 100% 30.05 in 10.0 mi North 8.1 mph - 0.00 in   Mostly Cloudy
11:35 PM 55.4 °F - 55.4 °F 100% 30.05 in 10.0 mi NNE 4.6 mph - 0.00 in   Mostly Cloudy
11:55 PM 55.4 °F - 55.4 °F 100% 30.04 in 10.0 mi North 8.1 mph - 0.00 in   Mostly Cloudy